Spokane Felts, WA

10:37 AM PDT on October 21, 2017 (GMT -0700)
Felts

Weather History for KSFF - May, 2014

Change the Weather History Date:

Friday, May 23, 2014

  Actual Average Record
Temperature  
Mean Temperature 67 °F 57 °F  
Max Temperature 83 °F 69 °F 91 °F (2001)
Min Temperature 51 °F 44 °F 35 °F (2013)
Degree Days  
Heating Degree Days 0 8  
Month to date heating degree days 167 260  
Since 1 July heating degree days 6088 6115  
Cooling Degree Days 2 0  
Month to date cooling degree days 5 0  
Year to date cooling degree days 5 0  
Growing Degree Days 18 (Base 50)    
Moisture  
Dew Point 47 °F    
Average Humidity 54    
Maximum Humidity 83    
Minimum Humidity 24    
Precipitation  
Precipitation T in 0.06 in 0.11 in (2016)
Month to date precipitation 0.86 1.22  
Year to date precipitation 7.50 7.36  
Sea Level Pressure  
Sea Level Pressure 29.94 in    
Wind  
Wind Speed 8 mph (West)    
Max Wind Speed 24 mph    
Max Gust Speed 30 mph    
Visibility 10 miles    
Events      
T = Trace of Precipitation, MM = Missing Value Source: NWS Daily Summary

Daily Weather History Graph

Daily Weather History Graph

Search for Another Location

Airport or City:

Trip Planner

Search our weather history database for the weather conditions in past years. The results will help you decide how hot, cold, wet, or windy it might be!

Date:

Astronomy

May. 23, 2014 Rise Set
Actual Time 5:02 AM PDT 8:30 PM PDT
Civil Twilight 4:24 AM PDT 9:08 PM PDT
Nautical Twilight 3:34 AM PDT 9:59 PM PDT
Astronomical Twilight 2:27 AM PDT 11:06 PM PDT
Moon 2:23 AM PDT (5/23) 3:06 PM PDT (5/23)
Length of Visible Light 16h 43m
Length of Day
15h 27m
Waning Crescent, 26% of the Moon is Illuminated
May 23
Waning Crescent
May 28
New
Jun 5
First Quarter
Jun 12
Full
Jun 19
Last Quarter

Hourly Weather History & Observations

Time (PDT) Temp. Dew Point Humidity Pressure Visibility Wind Dir Wind Speed Gust Speed Precip Events Conditions
12:53 AM 57.0 °F 48.0 °F 72% 29.96 in 10.0 mi NE 3.5 mph - N/A   Clear
1:53 AM 57.9 °F 46.9 °F 67% 29.96 in 10.0 mi ENE 5.8 mph - N/A   Clear
2:53 AM 55.9 °F 46.9 °F 72% 29.95 in 10.0 mi NE 4.6 mph - N/A   Clear
3:53 AM 55.0 °F 46.9 °F 74% 29.96 in 10.0 mi NNE 4.6 mph - N/A   Clear
4:53 AM 54.0 °F 46.9 °F 77% 29.95 in 10.0 mi NE 3.5 mph - N/A   Clear
5:53 AM 53.1 °F 48.0 °F 83% 29.95 in 10.0 mi NE 3.5 mph - N/A   Clear
6:53 AM 57.9 °F 48.9 °F 72% 29.95 in 10.0 mi NNE 3.5 mph - N/A   Clear
7:53 AM 62.6 °F 50.0 °F 63% 29.96 in 10.0 mi Variable 3.5 mph - N/A   Clear
8:53 AM 66.9 °F 51.1 °F 57% 29.93 in 10.0 mi North 3.5 mph - N/A   Clear
9:53 AM 69.1 °F 50.0 °F 51% 29.93 in 10.0 mi Calm Calm - N/A   Clear
10:53 AM 75.0 °F 51.1 °F 43% 29.91 in 10.0 mi Calm Calm - N/A   Clear
11:53 AM 79.0 °F 48.0 °F 34% 29.89 in 10.0 mi Variable 3.5 mph - N/A   Clear
12:53 PM 82.0 °F 43.0 °F 25% 29.88 in 10.0 mi WSW 11.5 mph 17.3 mph N/A   Scattered Clouds
1:53 PM 78.1 °F 46.9 °F 33% 29.89 in 10.0 mi West 11.5 mph 27.6 mph N/A   Overcast
2:53 PM 75.9 °F 48.0 °F 37% 29.91 in 10.0 mi West 17.3 mph 24.2 mph N/A   Overcast
3:53 PM 72.0 °F 48.9 °F 44% 29.94 in 10.0 mi West 8.1 mph - 0.00 in   Overcast
4:53 PM 73.0 °F 44.1 °F 35% 29.91 in 10.0 mi SW 11.5 mph 19.6 mph N/A   Mostly Cloudy
5:53 PM 73.9 °F 46.0 °F 37% 29.91 in 10.0 mi WSW 17.3 mph 26.5 mph N/A   Mostly Cloudy
6:53 PM 72.0 °F 41.0 °F 33% 29.92 in 10.0 mi WSW 20.7 mph 28.8 mph N/A   Mostly Cloudy
7:53 PM 70.0 °F 42.1 °F 36% 29.93 in 10.0 mi SW 15.0 mph 25.3 mph N/A   Partly Cloudy
8:53 PM 68.0 °F 44.1 °F 42% 29.94 in 10.0 mi SW 13.8 mph - N/A   Mostly Cloudy
9:53 PM 66.2 °F 46.4 °F 49% 29.99 in 10.0 mi SW 13.8 mph - N/A   Clear
10:53 PM 62.1 °F 48.0 °F 60% 29.97 in 10.0 mi SW 9.2 mph - N/A   Clear
11:53 PM 60.1 °F 48.9 °F 67% 29.98 in 10.0 mi SSW 11.5 mph - N/A   Clear